Philadelphia, PA

11:57 PM EST on December 07, 2016 (GMT -0500)
Philadelphia International

Weather History for KPHL - March, 2013

Change the Weather History Date:

Sunday, March 3, 2013

  Actual Average Record
Temperature  
Mean Temperature 35 °F 40 °F  
Max Temperature 40 °F 48 °F 73 °F (1991)
Min Temperature 29 °F 31 °F 10 °F (1886)
Degree Days  
Heating Degree Days 30 25  
Month to date heating degree days 83 77  
Since 1 July heating degree days 3290 3559  
Cooling Degree Days 0 0  
Month to date cooling degree days 0 0  
Year to date cooling degree days 0 0  
Moisture  
Dew Point 16 °F    
Average Humidity 48    
Maximum Humidity 58    
Minimum Humidity 37    
Precipitation  
Precipitation 0.00 in 0.10 in 2.20 in (1906)
Month to date precipitation T 0.31  
Year to date precipitation 5.46 5.99  
Snow  
Snow 0.00 in 0.10 in 7.90 in (1960)
Month to date snowfall T 0.5  
Since 1 July snowfall 7.0 19.5  
Snow Depth 0.00 in    
Sea Level Pressure  
Sea Level Pressure 29.79 in    
Wind  
Wind Speed 13 mph (NW)    
Max Wind Speed 23 mph    
Max Gust Speed 28 mph    
Visibility 10 miles    
Events      
T = Trace of Precipitation, MM = Missing Value Source: NWS Daily Summary

Daily Weather History Graph

Daily Weather History Graph

Search for Another Location

Airport or City:

Trip Planner

Search our weather history database for the weather conditions in past years. The results will help you decide how hot, cold, wet, or windy it might be!

Date:

Astronomy

Mar. 03, 2013 Rise Set
Actual Time 6:30 AM EST 5:55 PM EST
Civil Twilight 6:03 AM EST 6:22 PM EST
Nautical Twilight 5:32 AM EST 6:53 PM EST
Astronomical Twilight 5:01 AM EST 7:25 PM EST
Moon No Moon Rise 9:44 AM EST (3/3)
Length of Visible Light 12h 18m
Length of Day
11h 24m
Waning Gibbous, 64% of the Moon is Illuminated
Mar 3
Waning Gibbous
Mar 4
Last Quarter
Mar 11
New
Mar 19
First Quarter
Mar 27
Full

Hourly Weather History & Observations

Time (EST) Temp. Windchill Dew Point Humidity Pressure Visibility Wind Dir Wind Speed Gust Speed Precip Events Conditions
12:54 AM 34.0 °F 26.0 °F 18.0 °F 52% 29.81 in 10.0 mi NNW 10.4 mph - N/A   Overcast
1:54 AM 33.1 °F 25.5 °F 19.0 °F 56% 29.80 in 10.0 mi NW 9.2 mph - N/A   Overcast
2:54 AM 32.0 °F 22.1 °F 18.0 °F 56% 29.79 in 10.0 mi NW 13.8 mph - N/A   Scattered Clouds
3:54 AM 30.9 °F 22.2 °F 17.1 °F 57% 29.79 in 10.0 mi NNW 10.4 mph - N/A   Scattered Clouds
4:54 AM 30.0 °F 21.7 °F 16.0 °F 56% 29.80 in 10.0 mi NNW 9.2 mph - N/A   Scattered Clouds
5:54 AM 30.0 °F 21.1 °F 16.0 °F 56% 29.81 in 10.0 mi WNW 10.4 mph - N/A   Scattered Clouds
6:54 AM 30.0 °F 21.7 °F 15.1 °F 54% 29.81 in 10.0 mi NW 9.2 mph - N/A   Scattered Clouds
7:54 AM 30.9 °F 21.7 °F 15.1 °F 52% 29.82 in 10.0 mi NW 11.5 mph - N/A   Scattered Clouds
8:54 AM 32.0 °F 20.1 °F 14.0 °F 48% 29.82 in 10.0 mi NW 19.6 mph 25.3 mph N/A   Mostly Cloudy
9:54 AM 32.0 °F 20.8 °F 12.9 °F 45% 29.81 in 10.0 mi WNW 17.3 mph 24.2 mph N/A   Overcast
10:54 AM 33.1 °F 22.2 °F 12.9 °F 43% 29.80 in 10.0 mi WNW 17.3 mph - N/A   Mostly Cloudy
11:54 AM 35.1 °F 25.2 °F 14.0 °F 42% 29.79 in 10.0 mi WNW 16.1 mph - N/A   Mostly Cloudy
12:54 PM 36.0 °F 25.6 °F 14.0 °F 41% 29.77 in 10.0 mi WNW 18.4 mph 21.9 mph N/A   Mostly Cloudy
1:54 PM 36.0 °F 26.3 °F 15.1 °F 43% 29.76 in 10.0 mi WNW 16.1 mph 24.2 mph N/A   Mostly Cloudy
2:54 PM 39.0 °F 30.6 °F 16.0 °F 39% 29.75 in 10.0 mi NW 15.0 mph 23.0 mph N/A   Mostly Cloudy
3:07 PM 37.4 °F 30.8 °F 15.8 °F 41% 29.75 in 10.0 mi WNW 9.2 mph 24.2 mph N/A   Mostly Cloudy
3:54 PM 39.0 °F 30.3 °F 15.1 °F 38% 29.75 in 10.0 mi NNW 16.1 mph 24.2 mph N/A   Mostly Cloudy
4:54 PM 37.9 °F 28.9 °F 15.1 °F 39% 29.76 in 10.0 mi NW 16.1 mph 27.6 mph N/A   Mostly Cloudy
5:54 PM 37.0 °F 29.8 °F 16.0 °F 42% 29.77 in 10.0 mi NW 10.4 mph - N/A   Scattered Clouds
6:54 PM 37.0 °F 29.3 °F 16.0 °F 42% 29.79 in 10.0 mi WNW 11.5 mph - N/A   Mostly Cloudy
7:54 PM 36.0 °F 29.0 °F 17.1 °F 46% 29.81 in 10.0 mi WNW 9.2 mph - N/A   Scattered Clouds
8:54 PM 35.1 °F 27.4 °F 18.0 °F 50% 29.82 in 10.0 mi WNW 10.4 mph - N/A   Mostly Cloudy
9:54 PM 35.1 °F 29.3 °F 19.9 °F 54% 29.83 in 10.0 mi WNW 6.9 mph - N/A   Mostly Cloudy
10:54 PM 35.1 °F 27.9 °F 19.0 °F 52% 29.83 in 10.0 mi WNW 9.2 mph - N/A   Mostly Cloudy
11:54 PM 35.1 °F 25.9 °F 18.0 °F 50% 29.83 in 10.0 mi NW 13.8 mph - N/A   Overcast